QPF
0.01 0.01 0.02 0.03 0.03 0.03 0.04 0.06 0.04 0.02 0.02 0.02 0.03 0.03 0.03 0.03 0.03 0.03 0.02 0.02 0.05 0.06 0.07 0.06 0.05 0.05 0.05 0.04 0.05 0.05 0.04 0.05 0.05 0.05 0.04 0.05 0.04 0.03 0.03 0.03 0.02 0.02 0.02
0.01 0.01 0.01 0.02 0.02 0.03 0.03 0.04 0.03 0.02 0.02 0.03 0.02 0.02 0.04 0.05 0.03 0.02 0.03 0.03 0.03 0.03 0.04 0.05 0.05 0.04 0.04 0.04 0.04 0.04 0.04 0.04 0.04 0.04 0.04 0.03 0.04 0.04 0.04 0.04 0.02 0.02 0.02
0.02 0.02 0.02 0.02 0.02 0.02 0.03 0.03 0.03 0.02 0.02 0.02 0.02 0.03 0.03 0.04 0.04 0.02 0.02 0.03 0.04 0.03 0.04 0.04 0.04 0.04 0.04 0.05 0.04 0.04 0.04 0.03 0.03 0.04 0.03 0.03 0.03 0.04 0.04 0.04 0.03 0.03 0.02
0.04 0.04 0.03 0.02 0.03 0.03 0.03 0.04 0.03 0.03 0.03 0.04 0.04 0.04 0.04 0.04 0.03 0.03 0.02 0.02 0.03 0.04 0.05 0.05 0.05 0.04 0.04 0.05 0.04 0.04 0.04 0.04 0.03 0.03 0.04 0.04 0.04 0.04 0.04 0.04 0.04 0.04 0.02
0.05 0.04 0.03 0.03 0.04 0.03 0.04 0.04 0.04 0.04 0.05 0.05 0.04 0.03 0.03 0.04 0.04 0.04 0.03 0.02 0.03 0.04 0.05 0.05 0.05 0.06 0.05 0.06 0.07 0.04 0.03 0.04 0.04 0.05 0.05 0.04 0.04 0.03 0.03 0.02 0.02 0.03 0.02
0.05 0.03 0.03 0.03 0.04 0.05 0.05 0.05 0.05 0.05 0.05 0.06 0.04 0.03 0.03 0.03 0.03 0.03 0.03 0.03 0.03 0.03 0.03 0.04 0.05 0.05 0.06 0.05 0.06 0.06 0.04 0.04 0.05 0.05 0.05 0.04 0.04 0.03 0.03 0.02 0.02 0.01 0.02
0.04 0.03 0.03 0.03 0.03 0.04 0.05 0.05 0.05 0.05 0.05 0.05 0.05 0.04 0.03 0.03 0.02 0.03 0.03 0.03 0.02 0.01 0.02 0.04 0.05 0.04 0.04 0.04 0.05 0.07 0.08 0.06 0.06 0.07 0.06 0.05 0.04 0.03 0.03 0.03 0.02 0.02 0.01
0.05 0.04 0.04 0.03 0.04 0.05 0.06 0.05 0.05 0.06 0.06 0.06 0.06 0.05 0.03 0.03 0.02 0.02 0.02 0.02 0.02 0.02 0.02 0.03 0.04 0.05 0.04 0.03 0.03 0.05 0.09 0.08 0.06 0.06 0.07 0.05 0.04 0.03 0.03 0.03 0.03 0.03 0.02
0.05 0.05 0.04 0.03 0.04 0.04 0.04 0.05 0.06 0.07 0.07 0.07 0.07 0.06 0.05 0.05 0.04 0.02 0.02 0.02 0.02 0.02 0.01 0.02 0.03 0.05 0.04 0.04 0.03 0.03 0.05 0.05 0.07 0.06 0.07 0.06 0.05 0.04 0.04 0.03 0.03 0.03 0.02
0.03 0.05 0.05 0.04 0.04 0.04 0.04 0.05 0.06 0.07 0.08 0.09 0.07 0.06 0.05 0.06 0.06 0.04 0.02 0.02 0.01 0.01 0.01 0.02 0.03 0.04 0.04 0.04 0.03 0.02 0.02 0.02 0.04 0.06 0.06 0.06 0.05 0.07 0.07 0.06 0.04 0.03 0.03
0.04 0.06 0.05 0.04 0.04 0.04 0.04 0.05 0.06 0.07 0.06 0.06 0.06 0.06 0.06 0.07 0.06 0.06 0.04 0.03 0.02 0.01 0.01 0.01 0.02 0.03 0.03 0.04 0.04 0.02 0.02 0.02 0.03 0.04 0.04 0.05 0.05 0.08 0.10 0.07 0.04 0.04 0.04
0.05 0.06 0.05 0.07 0.05 0.04 0.05 0.05 0.05 0.05 0.05 0.05 0.06 0.06 0.06 0.06 0.06 0.06 0.06 0.04 0.03 0.02 0.02 0.01 0.01 0.02 0.02 0.03 0.04 0.03 0.02 0.02 0.03 0.04 0.04 0.04 0.05 0.09 0.13 0.08 0.05 0.06 0.05
0.04 0.06 0.06 0.05 0.04 0.04 0.04 0.04 0.04 0.04 0.05 0.06 0.07 0.06 0.05 0.05 0.05 0.06 0.06 0.06 0.04 0.03 0.02 0.02 0.02 0.02 0.02 0.02 0.03 0.02 0.01 0.01 0.03 0.04 0.04 0.04 0.04 0.07 0.10 0.07 0.07 0.06 0.04
0.04 0.04 0.03 0.03 0.04 0.04 0.04 0.05 0.06 0.05 0.04 0.04 0.04 0.04 0.05 0.05 0.05 0.06 0.07 0.08 0.07 0.04 0.03 0.02 0.02 0.02 0.03 0.03 0.03 0.03 0.02 0.01 0.02 0.04 0.05 0.04 0.04 0.04 0.05 0.05 0.05 0.03 0.02
0.03 0.02 0.02 0.03 0.04 0.05 0.05 0.04 0.04 0.04 0.04 0.05 0.05 0.06 0.07 0.06 0.06 0.06 0.06 0.07 0.07 0.06 0.05 0.04 0.04 0.03 0.03 0.03 0.03 0.03 0.02 0.02 0.02 0.02 0.04 0.05 0.04 0.03 0.03 0.03 0.03 0.03 0.02
0.03 0.03 0.03 0.04 0.04 0.04 0.04 0.05 0.05 0.04 0.05 0.05 0.06 0.06 0.07 0.07 0.07 0.07 0.06 0.05 0.06 0.07 0.06 0.05 0.05 0.04 0.04 0.03 0.04 0.04 0.03 0.04 0.03 0.02 0.02 0.04 0.05 0.04 0.03 0.03 0.03 0.04 0.04
0.04 0.04 0.04 0.04 0.04 0.04 0.04 0.06 0.06 0.05 0.04 0.05 0.05 0.05 0.05 0.06 0.07 0.07 0.06 0.06 0.05 0.06 0.05 0.04 0.04 0.05 0.05 0.04 0.04 0.04 0.05 0.04 0.03 0.03 0.03 0.03 0.03 0.03 0.03 0.03 0.03 0.03 0.04
0.03 0.03 0.03 0.04 0.04 0.05 0.05 0.05 0.04 0.04 0.04 0.04 0.04 0.04 0.04 0.05 0.06 0.06 0.06 0.06 0.06 0.06 0.05 0.04 0.04 0.04 0.05 0.05 0.04 0.03 0.04 0.03 0.03 0.02 0.03 0.03 0.03 0.02 0.02 0.02 0.02 0.02 0.03
0.03 0.03 0.03 0.03 0.03 0.03 0.04 0.05 0.04 0.03 0.03 0.04 0.04 0.04 0.05 0.06 0.07 0.06 0.06 0.06 0.06 0.06 0.06 0.04 0.03 0.04 0.04 0.04 0.05 0.04 0.03 0.03 0.02 0.02 0.03 0.03 0.03 0.03 0.03 0.02 0.02 0.01 0.01
0.04 0.04 0.04 0.04 0.04 0.05 0.05 0.05 0.05 0.04 0.04 0.04 0.04 0.04 0.04 0.05 0.05 0.06 0.06 0.06 0.06 0.07 0.07 0.05 0.04 0.03 0.03 0.04 0.04 0.04 0.04 0.04 0.03 0.02 0.03 0.04 0.03 0.03 0.03 0.03 0.02 0.01 0.00
0.04 0.04 0.05 0.05 0.05 0.05 0.04 0.04 0.04 0.04 0.05 0.05 0.04 0.03 0.03 0.04 0.04 0.04 0.04 0.04 0.05 0.05 0.05 0.05 0.04 0.05 0.04 0.05 0.04 0.03 0.03 0.03 0.03 0.03 0.03 0.03 0.03 0.03 0.03 0.02 0.01 0.00 0.00
0.03 0.03 0.04 0.04 0.04 0.03 0.03 0.02 0.02 0.03 0.05 0.06 0.05 0.05 0.03 0.02 0.02 0.03 0.03 0.03 0.03 0.03 0.04 0.04 0.03 0.04 0.04 0.04 0.04 0.04 0.04 0.04 0.03 0.02 0.03 0.03 0.03 0.03 0.03 0.02 0.01 0.01 0.00
0.03 0.03 0.02 0.02 0.03 0.02 0.03 0.03 0.03 0.02 0.03 0.04 0.04 0.03 0.02 0.02 0.02 0.03 0.03 0.03 0.03 0.03 0.03 0.03 0.02 0.02 0.03 0.05 0.06 0.05 0.05 0.06 0.05 0.05 0.05 0.05 0.05 0.04 0.02 0.01 0.01 0.01 0.01
0.02 0.02 0.01 0.02 0.02 0.03 0.03 0.03 0.03 0.02 0.02 0.02 0.03 0.03 0.03 0.03 0.02 0.02 0.03 0.04 0.03 0.02 0.02 0.02 0.02 0.03 0.04 0.06 0.07 0.08 0.09 0.10 0.09 0.08 0.08 0.07 0.06 0.05 0.03 0.02 0.01 0.01 0.00
0.03 0.02 0.02 0.02 0.02 0.03 0.02 0.02 0.02 0.02 0.03 0.03 0.03 0.02 0.02 0.02 0.01 0.02 0.03 0.05 0.05 0.03 0.01 0.01 0.01 0.02 0.02 0.02 0.03 0.04 0.06 0.06 0.06 0.05 0.06 0.06 0.05 0.05 0.06 0.05 0.03 0.02 0.01
0.04 0.05 0.04 0.03 0.02 0.03 0.02 0.01 0.02 0.02 0.02 0.02 0.02 0.01 0.01 0.01 0.01 0.02 0.02 0.03 0.04 0.02 0.01 0.01 0.01 0.01 0.01 0.01 0.01 0.01 0.03 0.04 0.04 0.04 0.04 0.05 0.05 0.06 0.07 0.06 0.05 0.04 0.03
MSLP
1017.40 1017.57 1017.72 1017.84 1017.96 1018.08 1018.19 1018.30 1018.39 1018.44 1018.44 1018.40 1018.33 1018.25 1018.19 1018.18 1018.24 1018.37 1018.57 1018.81 1019.05 1019.28 1019.46 1019.59 1019.67 1019.72 1019.76 1019.81 1019.89 1019.99 1020.11 1020.24 1020.35 1020.43 1020.49 1020.53 1020.56 1020.60 1020.65 1020.72 1020.82 1020.92 1021.01
1017.56 1017.74 1017.88 1018.00 1018.09 1018.18 1018.27 1018.35 1018.43 1018.48 1018.50 1018.48 1018.44 1018.37 1018.31 1018.28 1018.29 1018.36 1018.49 1018.66 1018.85 1019.04 1019.21 1019.35 1019.47 1019.56 1019.65 1019.74 1019.85 1019.96 1020.08 1020.20 1020.31 1020.40 1020.48 1020.55 1020.62 1020.70 1020.80 1020.91 1021.03 1021.15 1021.26
1017.70 1017.89 1018.04 1018.15 1018.22 1018.29 1018.35 1018.41 1018.47 1018.52 1018.55 1018.55 1018.51 1018.46 1018.39 1018.32 1018.29 1018.29 1018.34 1018.43 1018.56 1018.71 1018.86 1019.02 1019.16 1019.30 1019.44 1019.57 1019.71 1019.85 1019.98 1020.11 1020.23 1020.35 1020.45 1020.56 1020.68 1020.82 1020.96 1021.12 1021.27 1021.41 1021.52
1017.76 1017.97 1018.13 1018.24 1018.31 1018.37 1018.42 1018.46 1018.51 1018.55 1018.58 1018.59 1018.56 1018.50 1018.41 1018.32 1018.24 1018.18 1018.15 1018.18 1018.24 1018.34 1018.47 1018.62 1018.78 1018.96 1019.13 1019.31 1019.49 1019.66 1019.82 1019.98 1020.13 1020.27 1020.42 1020.57 1020.74 1020.93 1021.12 1021.32 1021.51 1021.67 1021.80
1017.72 1017.94 1018.11 1018.23 1018.32 1018.38 1018.43 1018.47 1018.51 1018.55 1018.58 1018.58 1018.56 1018.50 1018.41 1018.29 1018.18 1018.07 1017.99 1017.95 1017.95 1018.00 1018.10 1018.23 1018.39 1018.58 1018.78 1018.99 1019.21 1019.42 1019.62 1019.81 1020.00 1020.19 1020.38 1020.59 1020.80 1021.03 1021.26 1021.50 1021.71 1021.90 1022.05
1017.56 1017.79 1017.97 1018.12 1018.23 1018.31 1018.37 1018.41 1018.46 1018.50 1018.53 1018.53 1018.51 1018.46 1018.38 1018.26 1018.14 1018.00 1017.89 1017.81 1017.76 1017.76 1017.81 1017.91 1018.05 1018.23 1018.44 1018.67 1018.91 1019.16 1019.41 1019.65 1019.89 1020.13 1020.37 1020.61 1020.86 1021.12 1021.38 1021.64 1021.88 1022.09 1022.26
1017.31 1017.54 1017.74 1017.91 1018.05 1018.15 1018.23 1018.30 1018.35 1018.39 1018.42 1018.44 1018.43 1018.39 1018.33 1018.23 1018.12 1017.99 1017.87 1017.77 1017.69 1017.65 1017.65 1017.70 1017.81 1017.96 1018.16 1018.39 1018.66 1018.94 1019.23 1019.52 1019.81 1020.10 1020.37 1020.65 1020.92 1021.20 1021.47 1021.73 1021.98 1022.21 1022.40
1017.03 1017.25 1017.46 1017.65 1017.81 1017.94 1018.04 1018.12 1018.19 1018.23 1018.27 1018.29 1018.30 1018.29 1018.25 1018.20 1018.12 1018.03 1017.92 1017.82 1017.73 1017.65 1017.61 1017.61 1017.67 1017.78 1017.95 1018.17 1018.44 1018.75 1019.08 1019.42 1019.76 1020.09 1020.41 1020.71 1020.99 1021.26 1021.53 1021.78 1022.03 1022.25 1022.46
1016.79 1016.99 1017.19 1017.39 1017.56 1017.71 1017.83 1017.92 1017.99 1018.03 1018.07 1018.10 1018.11 1018.13 1018.13 1018.12 1018.10 1018.06 1018.00 1017.92 1017.83 1017.74 1017.66 1017.61 1017.60 1017.66 1017.79 1017.99 1018.26 1018.58 1018.95 1019.34 1019.73 1020.10 1020.44 1020.76 1021.04 1021.31 1021.55 1021.79 1022.02 1022.24 1022.46
1016.63 1016.80 1016.98 1017.17 1017.34 1017.49 1017.61 1017.70 1017.76 1017.80 1017.82 1017.84 1017.86 1017.89 1017.93 1017.97 1018.01 1018.03 1018.02 1017.98 1017.91 1017.81 1017.70 1017.61 1017.55 1017.55 1017.63 1017.80 1018.06 1018.39 1018.79 1019.22 1019.66 1020.07 1020.45 1020.78 1021.07 1021.32 1021.55 1021.76 1021.97 1022.19 1022.40
1016.59 1016.71 1016.86 1017.01 1017.16 1017.29 1017.40 1017.47 1017.51 1017.52 1017.52 1017.52 1017.54 1017.57 1017.63 1017.72 1017.80 1017.88 1017.93 1017.94 1017.89 1017.80 1017.67 1017.54 1017.43 1017.38 1017.41 1017.55 1017.79 1018.13 1018.55 1019.02 1019.51 1019.97 1020.38 1020.74 1021.04 1021.29 1021.51 1021.71 1021.91 1022.12 1022.33
1016.63 1016.70 1016.80 1016.90 1017.01 1017.11 1017.19 1017.23 1017.24 1017.22 1017.18 1017.15 1017.14 1017.17 1017.24 1017.34 1017.47 1017.59 1017.69 1017.75 1017.73 1017.65 1017.52 1017.36 1017.21 1017.12 1017.10 1017.20 1017.43 1017.78 1018.22 1018.73 1019.26 1019.77 1020.23 1020.63 1020.96 1021.23 1021.45 1021.65 1021.85 1022.05 1022.27
1016.71 1016.73 1016.76 1016.82 1016.88 1016.93 1016.97 1016.98 1016.95 1016.89 1016.82 1016.75 1016.71 1016.71 1016.77 1016.87 1017.02 1017.18 1017.31 1017.40 1017.42 1017.36 1017.24 1017.07 1016.89 1016.76 1016.71 1016.79 1017.00 1017.34 1017.80 1018.34 1018.92 1019.48 1020.00 1020.45 1020.82 1021.12 1021.37 1021.59 1021.79 1022.00 1022.22
1016.77 1016.74 1016.71 1016.71 1016.72 1016.73 1016.73 1016.71 1016.65 1016.55 1016.44 1016.34 1016.26 1016.23 1016.26 1016.36 1016.50 1016.67 1016.83 1016.95 1017.00 1016.97 1016.85 1016.69 1016.51 1016.36 1016.30 1016.35 1016.55 1016.89 1017.36 1017.93 1018.54 1019.15 1019.72 1020.22 1020.64 1020.99 1021.28 1021.52 1021.74 1021.96 1022.17
1016.76 1016.68 1016.60 1016.55 1016.52 1016.50 1016.47 1016.43 1016.35 1016.23 1016.10 1015.95 1015.84 1015.77 1015.77 1015.84 1015.97 1016.14 1016.31 1016.45 1016.53 1016.53 1016.44 1016.30 1016.13 1015.99 1015.92 1015.97 1016.17 1016.51 1016.98 1017.55 1018.19 1018.83 1019.43 1019.98 1020.44 1020.83 1021.16 1021.43 1021.68 1021.91 1022.12
1016.66 1016.54 1016.43 1016.34 1016.28 1016.24 1016.20 1016.15 1016.06 1015.94 1015.79 1015.63 1015.48 1015.38 1015.34 1015.38 1015.49 1015.65 1015.82 1015.97 1016.07 1016.11 1016.06 1015.96 1015.83 1015.72 1015.67 1015.73 1015.93 1016.27 1016.73 1017.30 1017.93 1018.58 1019.19 1019.76 1020.25 1020.66 1021.02 1021.31 1021.58 1021.81 1022.03
1016.46 1016.32 1016.18 1016.07 1016.00 1015.96 1015.92 1015.88 1015.80 1015.68 1015.53 1015.35 1015.19 1015.06 1014.99 1015.00 1015.08 1015.22 1015.38 1015.55 1015.68 1015.75 1015.76 1015.71 1015.64 1015.58 1015.58 1015.67 1015.88 1016.22 1016.67 1017.22 1017.82 1018.44 1019.03 1019.57 1020.05 1020.47 1020.82 1021.13 1021.40 1021.64 1021.86
1016.21 1016.05 1015.91 1015.79 1015.72 1015.68 1015.65 1015.62 1015.55 1015.44 1015.29 1015.12 1014.94 1014.79 1014.70 1014.67 1014.72 1014.84 1015.00 1015.17 1015.33 1015.45 1015.52 1015.54 1015.55 1015.56 1015.62 1015.76 1016.00 1016.34 1016.77 1017.28 1017.84 1018.39 1018.93 1019.42 1019.85 1020.23 1020.55 1020.85 1021.11 1021.35 1021.58
1015.93 1015.77 1015.62 1015.51 1015.43 1015.40 1015.38 1015.35 1015.29 1015.19 1015.05 1014.87 1014.69 1014.53 1014.41 1014.36 1014.39 1014.49 1014.64 1014.82 1015.00 1015.16 1015.29 1015.40 1015.49 1015.59 1015.73 1015.92 1016.20 1016.55 1016.97 1017.43 1017.92 1018.40 1018.85 1019.25 1019.60 1019.91 1020.19 1020.44 1020.69 1020.94 1021.18
1015.65 1015.49 1015.34 1015.23 1015.15 1015.11 1015.09 1015.06 1015.00 1014.89 1014.75 1014.57 1014.38 1014.21 1014.08 1014.02 1014.03 1014.11 1014.25 1014.43 1014.63 1014.82 1015.01 1015.19 1015.36 1015.55 1015.78 1016.04 1016.36 1016.74 1017.14 1017.57 1017.99 1018.37 1018.72 1019.01 1019.27 1019.49 1019.70 1019.91 1020.14 1020.38 1020.64
1015.37 1015.21 1015.06 1014.94 1014.86 1014.80 1014.76 1014.71 1014.63 1014.51 1014.36 1014.17 1013.98 1013.81 1013.68 1013.60 1013.59 1013.66 1013.79 1013.96 1014.17 1014.39 1014.62 1014.85 1015.10 1015.36 1015.67 1016.00 1016.38 1016.78 1017.18 1017.58 1017.93 1018.24 1018.48 1018.67 1018.82 1018.95 1019.08 1019.24 1019.45 1019.70 1019.99
1015.08 1014.92 1014.77 1014.64 1014.54 1014.45 1014.37 1014.28 1014.17 1014.03 1013.86 1013.67 1013.48 1013.32 1013.19 1013.11 1013.10 1013.16 1013.27 1013.43 1013.62 1013.84 1014.08 1014.35 1014.64 1014.97 1015.33 1015.73 1016.16 1016.59 1017.01 1017.39 1017.70 1017.94 1018.10 1018.20 1018.25 1018.30 1018.36 1018.48 1018.66 1018.92 1019.24
1014.76 1014.60 1014.44 1014.29 1014.16 1014.04 1013.92 1013.79 1013.64 1013.47 1013.28 1013.10 1012.92 1012.76 1012.65 1012.59 1012.58 1012.63 1012.72 1012.85 1013.02 1013.21 1013.44 1013.71 1014.01 1014.37 1014.78 1015.22 1015.69 1016.16 1016.60 1016.97 1017.27 1017.47 1017.58 1017.61 1017.59 1017.57 1017.58 1017.65 1017.82 1018.08 1018.42
1014.38 1014.22 1014.06 1013.90 1013.75 1013.60 1013.43 1013.26 1013.07 1012.88 1012.69 1012.50 1012.34 1012.22 1012.13 1012.09 1012.10 1012.14 1012.21 1012.31 1012.43 1012.58 1012.76 1012.99 1013.28 1013.63 1014.05 1014.52 1015.02 1015.51 1015.98 1016.38 1016.67 1016.87 1016.95 1016.94 1016.89 1016.82 1016.79 1016.83 1016.98 1017.23 1017.59
1013.94 1013.80 1013.65 1013.49 1013.33 1013.15 1012.96 1012.76 1012.55 1012.34 1012.15 1011.98 1011.85 1011.76 1011.71 1011.70 1011.72 1011.75 1011.81 1011.86 1011.93 1012.01 1012.13 1012.30 1012.54 1012.86 1013.26 1013.73 1014.24 1014.76 1015.25 1015.68 1016.00 1016.20 1016.29 1016.28 1016.21 1016.12 1016.06 1016.07 1016.19 1016.42 1016.77
1013.48 1013.37 1013.25 1013.11 1012.95 1012.76 1012.56 1012.35 1012.12 1011.91 1011.73 1011.59 1011.48 1011.43 1011.42 1011.44 1011.47 1011.51 1011.53 1011.55 1011.55 1011.56 1011.61 1011.70 1011.87 1012.14 1012.51 1012.95 1013.47 1014.00 1014.52 1014.97 1015.33 1015.56 1015.67 1015.68 1015.61 1015.51 1015.43 1015.41 1015.49 1015.69 1016.00
Thickness
5740 5738 5736 5734 5735 5734 5732 5731 5731 5730 5730 5731 5731 5732 5732 5732 5731 5731 5730 5726 5724 5724 5723 5723 5722 5721 5720 5719 5719 5718 5717 5716 5715 5714 5713 5712 5712 5711 5710 5709 5708 5707 5706
5737 5735 5733 5731 5732 5731 5730 5729 5728 5727 5728 5729 5729 5729 5729 5729 5728 5727 5728 5726 5723 5722 5722 5721 5720 5719 5719 5718 5717 5716 5715 5714 5714 5713 5712 5711 5710 5709 5708 5707 5706 5705 5704
5733 5732 5731 5729 5729 5727 5725 5724 5725 5725 5724 5725 5725 5726 5726 5726 5726 5725 5725 5725 5724 5721 5720 5719 5718 5717 5717 5716 5715 5714 5713 5712 5712 5711 5710 5709 5708 5707 5706 5705 5704 5703 5702
5730 5728 5728 5728 5725 5724 5723 5722 5722 5722 5722 5722 5722 5723 5724 5722 5722 5722 5722 5722 5722 5722 5720 5717 5716 5715 5715 5714 5713 5712 5711 5710 5709 5709 5708 5707 5706 5705 5704 5702 5701 5701 5700
5728 5727 5726 5725 5722 5722 5721 5721 5721 5720 5718 5718 5719 5719 5720 5720 5720 5720 5720 5720 5718 5718 5718 5716 5714 5713 5713 5712 5711 5710 5709 5708 5707 5706 5706 5705 5704 5703 5701 5700 5699 5698 5698
5726 5725 5724 5721 5721 5720 5718 5717 5715 5715 5714 5713 5716 5716 5716 5717 5717 5717 5717 5718 5716 5715 5716 5715 5714 5712 5710 5710 5709 5709 5708 5707 5706 5704 5703 5703 5701 5700 5699 5698 5697 5696 5695
5724 5722 5723 5719 5717 5717 5714 5713 5712 5711 5711 5711 5709 5709 5711 5713 5714 5714 5714 5715 5715 5714 5713 5712 5712 5711 5710 5708 5707 5706 5705 5704 5704 5703 5701 5700 5699 5698 5697 5695 5694 5693 5693
5722 5721 5718 5718 5716 5713 5711 5709 5707 5707 5707 5707 5705 5703 5704 5707 5709 5713 5712 5711 5712 5712 5711 5711 5709 5708 5709 5709 5707 5704 5702 5701 5701 5700 5699 5698 5697 5695 5694 5693 5692 5691 5691
5720 5719 5717 5716 5713 5712 5709 5705 5704 5701 5702 5703 5703 5701 5699 5700 5704 5707 5707 5708 5708 5708 5709 5708 5707 5706 5705 5705 5705 5702 5699 5698 5698 5697 5696 5695 5694 5693 5692 5691 5690 5689 5688
5718 5717 5715 5713 5711 5710 5706 5704 5703 5700 5698 5698 5699 5699 5698 5700 5696 5698 5702 5704 5703 5703 5704 5704 5704 5703 5701 5701 5700 5699 5697 5695 5694 5693 5692 5691 5691 5690 5689 5688 5687 5686 5686
5717 5715 5712 5710 5708 5707 5704 5702 5700 5697 5696 5696 5695 5695 5694 5693 5693 5691 5692 5695 5697 5699 5700 5699 5699 5699 5698 5697 5697 5696 5694 5692 5691 5690 5689 5688 5687 5686 5686 5685 5684 5683 5683
5715 5713 5711 5707 5705 5704 5701 5699 5697 5695 5694 5692 5691 5691 5691 5690 5690 5689 5687 5688 5690 5694 5695 5695 5695 5695 5695 5695 5694 5692 5691 5689 5688 5687 5686 5685 5684 5683 5682 5681 5680 5679 5679
5712 5710 5709 5705 5703 5700 5698 5696 5694 5693 5691 5688 5687 5687 5687 5688 5688 5687 5684 5685 5686 5689 5689 5690 5691 5691 5691 5691 5690 5688 5686 5685 5684 5683 5683 5682 5680 5679 5678 5677 5676 5675 5675
5711 5707 5704 5702 5699 5697 5695 5692 5691 5689 5687 5685 5685 5683 5683 5684 5684 5683 5681 5679 5678 5682 5683 5684 5686 5686 5686 5686 5685 5682 5683 5681 5680 5679 5679 5678 5676 5675 5674 5672 5671 5670 5669
5706 5703 5701 5698 5696 5693 5691 5688 5687 5685 5683 5681 5681 5679 5679 5680 5678 5678 5678 5676 5672 5671 5675 5679 5679 5681 5679 5679 5678 5678 5678 5677 5675 5674 5673 5673 5671 5670 5668 5667 5666 5665 5664
5701 5698 5696 5693 5691 5688 5686 5683 5682 5681 5678 5676 5675 5674 5673 5674 5673 5672 5672 5671 5670 5667 5668 5674 5673 5676 5673 5674 5672 5671 5672 5671 5669 5669 5668 5667 5666 5664 5663 5662 5661 5660 5659
5695 5693 5691 5689 5686 5684 5681 5678 5677 5675 5672 5671 5670 5669 5667 5667 5667 5667 5666 5665 5664 5663 5661 5665 5667 5668 5666 5665 5665 5665 5666 5665 5666 5664 5662 5661 5660 5659 5658 5656 5655 5654 5653
5690 5688 5686 5684 5682 5680 5677 5674 5672 5670 5667 5665 5664 5663 5662 5662 5660 5660 5660 5659 5658 5657 5656 5656 5658 5659 5659 5659 5658 5658 5660 5661 5661 5659 5657 5655 5654 5653 5652 5651 5649 5649 5648
5685 5683 5681 5678 5677 5675 5672 5670 5667 5665 5662 5661 5659 5657 5656 5655 5653 5654 5653 5653 5652 5652 5651 5651 5651 5651 5652 5653 5651 5651 5653 5652 5654 5654 5651 5650 5648 5647 5646 5645 5644 5643 5643
5680 5678 5676 5674 5672 5670 5668 5665 5663 5660 5657 5655 5654 5652 5651 5649 5648 5647 5647 5645 5645 5644 5644 5644 5645 5645 5645 5646 5644 5644 5645 5646 5647 5648 5647 5646 5644 5642 5642 5641 5640 5639 5639
5675 5674 5671 5669 5667 5665 5663 5661 5658 5657 5653 5650 5649 5648 5646 5644 5642 5640 5641 5640 5639 5638 5638 5638 5638 5638 5639 5637 5637 5638 5638 5639 5640 5641 5641 5641 5641 5640 5639 5637 5636 5635 5635
5670 5668 5666 5664 5662 5661 5657 5653 5651 5651 5649 5647 5645 5643 5642 5640 5636 5633 5632 5630 5629 5630 5630 5630 5631 5630 5629 5631 5630 5631 5631 5631 5632 5636 5634 5634 5636 5636 5637 5637 5635 5633 5631
5665 5663 5661 5659 5657 5654 5650 5647 5644 5644 5644 5643 5641 5638 5638 5637 5632 5631 5627 5624 5622 5620 5619 5621 5623 5624 5624 5624 5622 5623 5623 5623 5624 5627 5626 5627 5630 5630 5632 5635 5632 5629 5627
5659 5657 5655 5654 5652 5649 5644 5641 5638 5639 5640 5638 5636 5634 5631 5629 5627 5625 5624 5622 5620 5618 5616 5615 5616 5617 5617 5617 5616 5615 5615 5616 5617 5620 5620 5620 5624 5625 5627 5628 5627 5625 5623
5653 5652 5651 5650 5648 5644 5639 5635 5631 5635 5635 5633 5631 5629 5627 5624 5619 5615 5615 5615 5614 5613 5612 5610 5609 5609 5608 5607 5607 5608 5609 5610 5611 5615 5615 5614 5617 5619 5620 5621 5621 5619 5618
5649 5648 5648 5646 5643 5640 5634 5630 5626 5631 5630 5629 5627 5625 5620 5617 5612 5608 5608 5608 5607 5608 5608 5608 5605 5603 5603 5603 5601 5601 5604 5604 5606 5608 5610 5608 5610 5611 5613 5617 5617 5615 5613